Flag for Uzbekistan Weather past 2 weeks in Tashkent, Uzbekistan

Now
46 °F

Fog.


Feels Like: 42 °F
Forecast: 30 / 36 °F
Wind: 8 mph from North

Location: Tashkent

Current Time: Jan 31, 2015 at 6:30:39 PM

Latest Report: Jan 31, 2015 at 5:30 PM


Visibility: 3 mi

Pressure: 29.92 "Hg

Humidity: 71%

Dew point: 37 °F

Location of TashkentLocation

Historic Weather in Tashkent — Graph

°F

Tashkent temperature yesterday

Maximum temperature yesterday: 48 °F (at 2:30 PM)
Minimum temperature yesterday: 30 °F (at 5:00 AM)
Average temperature yesterday: 39 °F

Past Weeks' High & Low Weather Summary

 TemperatureHumidityPressure
High61 °F (Jan 17, 12:30 PM)100% (Jan 19, 4:30 AM)30.57 "Hg (Jan 19, 4:30 AM)
Low16 °F (Jan 28, 7:00 AM)22% (Jan 17, 12:30 PM)29.92 "Hg (Jan 31, 3:30 PM)
Average33 °F77%30.26 "Hg
* Reported Jan 16 5:00 PM — Jan 31 5:00 PM, Tashkent, Weather by CustomWeather, © 2014

Note: Actual official high and low records may vary slightly from our data, if they occured in-between our weather recording intervals... More about our weather records

Advertising

Tashkent weather history for previous 24 hours

 ConditionsComfort  
Time TempWeatherWind HumidityBarometerVisibility
5:00 PM
Jan 31
48 °FBroken clouds.12 mph71%29.92 "Hg4 mi
4:30 PM54 °FPassing clouds.3 mph51%29.92 "HgN/A
4:00 PM55 °FPassing clouds.5 mph47%29.92 "HgN/A
3:30 PM55 °FBroken clouds.3 mph47%29.92 "HgN/A
3:00 PM54 °FBroken clouds.7 mph63%29.95 "HgN/A
2:30 PM54 °FBroken clouds.8 mph63%29.95 "HgN/A
2:00 PM55 °FBroken clouds.2 mph51%29.98 "HgN/A
1:30 PM55 °FBroken clouds.5 mph55%29.98 "HgN/A
1:00 PM54 °FBroken clouds.5 mph54%29.98 "HgN/A
12:30 PM54 °FBroken clouds.3 mph58%30.01 "HgN/A
12:00 PM52 °FSunny.6 mph62%30.01 "Hg10 mi
11:30 AM50 °FPartly sunny.5 mph67%30.04 "HgN/A
11:00 AM48 °FPartly sunny.6 mph71%30.04 "HgN/A
10:30 AM45 °FPartly sunny.7 mph71%30.04 "HgN/A
10:00 AM43 °FPartly sunny.9 mph76%30.04 "HgN/A
9:30 AM41 °FPartly sunny.7 mph81%30.04 "HgN/A
9:00 AM41 °FPartly sunny.7 mph81%30.07 "HgN/A
8:00 AM37 °FSunny.8 mph87%30.07 "Hg10 mi
7:30 AM39 °FPassing clouds.8 mph81%30.07 "HgN/A
7:00 AM39 °FClear.10 mph81%30.07 "Hg10 mi
6:30 AM39 °FPassing clouds.6 mph81%30.07 "HgN/A
6:00 AM39 °FPassing clouds.9 mph87%30.07 "HgN/A
5:30 AM39 °FPassing clouds.8 mph87%30.07 "HgN/A
5:00 AM37 °FClear.7 mph87%30.07 "Hg10 mi
4:30 AM39 °FOvercast.7 mph81%30.07 "HgN/A
4:00 AM39 °FOvercast.5 mph81%30.07 "HgN/A
3:30 AM41 °FMostly cloudy.3 mph81%30.07 "HgN/A
3:00 AM39 °FMostly cloudy.6 mph87%30.07 "HgN/A
2:00 AM39 °FMostly cloudy.6 mph87%30.07 "HgN/A
1:30 AM39 °FMostly cloudy.8 mph87%30.07 "HgN/A
1:00 AM39 °FMostly cloudy.7 mph87%30.07 "HgN/A
12:30 AM39 °FSprinkles. Overcast.7 mph93%30.07 "HgN/A
12:00 AM39 °FSprinkles. Overcast.5 mph93%30.07 "HgN/A
11:30 PM
Jan 30
39 °FMostly cloudy.6 mph93%30.07 "HgN/A
11:00 PM39 °FMostly cloudy.7 mph93%30.07 "HgN/A
10:30 PM39 °FFog.6 mph93%30.07 "Hg2 mi
10:00 PM39 °FFog.6 mph93%30.09 "Hg2 mi
9:30 PM39 °FFog.8 mph93%30.09 "Hg2 mi
9:00 PM39 °FFog.9 mph93%30.09 "Hg2 mi
8:30 PM39 °FFog.5 mph93%30.09 "Hg2 mi
8:00 PM39 °FFog.9 mph87%30.09 "Hg2 mi
7:30 PM41 °FSprinkles. Fog.9 mph81%30.07 "Hg2 mi
7:00 PM41 °FSprinkles. Fog.3 mph76%30.09 "Hg2 mi
6:30 PM41 °FSprinkles. Overcast.6 mph76%30.07 "HgN/A
6:00 PM43 °FMostly cloudy.8 mph76%30.07 "HgN/A
Weather by CustomWeather, © 2014

See weather overviewHow to use our weather pages